Location: Pallagorio
(39.3000°N, 16.9000°E)
Time: 18:20:50
(UTC+00:00)

Meteor 2-8 Rocket - Pass Details

Date: 24 January 2021
Orbit: 937 x 957 km, 82.5° (Epoch: 03 March)

Event Time Altitude Azimuth Distance (km) Brightness Sun altitude
Rises 17:39:33 0° 352° (N) 3,615 7.5 -18.5°
Reaches altitude 10° 17:42:02 10° 352° (N) 2,669 6.8 -19.0°
Maximum altitude 17:48:09 90° 23° (NNE) 952 4.4 -20.2°
Drops below altitude 10° 17:54:16 10° 174° (S) 2,666 6.8 -21.3°
Sets 17:56:45 0° 175° (S) 3,610 7.5 -21.8°
